KMCO

Orlando International

Airport
ICAO code
KMCO
Summary
ICAO Region
NAM
ICAO Territory
Location

Orlando, Florida,

Coordinates
28° 25' 53" N , 81° 18' 30" W
KCC
Airport WX
Lightning
Metar
Observation
KMCO 271553Z 21015G20KT 10SM SCT019 SCT025 BKN250 27/22 A3003 RMK AO2 SLP166 T02670217 $
Station
Orlando, Orlando International Airport
Date/Time
2022-11-27 15:53:00
Wind direction
210°
Wind speed
15 kts
Lowest cloud amount
scattered clouds
Temperature
26.7°C
Dew point
21.7°C
Humidity
74%
Weather condition
n/a

Description

International airport 6 nm south east of Orlando, Florida, USA.

Climatology

Humid “subtropical” climate (Köppen climate classification Cfa) - characterized by hot, humid summers and cool winters. From October to March the temperatures are more moderate and rain less frequent. Most summer rainfall occurs during thunderstorms and occasional tropical storms (hurricanes).

Runways

Designator Length Width Surface Rops
17L/35R 2743 46 ASP Yes/Yes
17R/35L 3048 46 CON Yes/Yes
18L/36R 3659 61 PEM Yes/Yes
18R/36L 3659 61 CON Yes/Yes

Airport map

Aerial View

SKYbrary Partners:

Safety knowledge contributed by: